Cloud_Cover
53 58 30 98 47 18 0 0 80 99 100 100 100 100 100 100 96 100 100 100 100 100 100 100 100 98 93 89 97 100 100 100 100 100 100 100 100 100 100 100 100 100 100 100 100
40 14 82 15 0 0 0 1 0 0 20 50 100 100 100 100 97 100 100 100 100 100 100 100 100 99 5 82 88 100 100 100 100 100 100 100 100 100 100 100 100 100 100 100 100
98 100 42 2 0 0 0 0 0 3 0 0 14 100 100 100 81 95 100 100 100 100 100 100 100 99 57 78 80 98 100 100 100 100 100 100 100 100 100 100 100 100 100 100 100
14 7 7 0 0 0 0 0 0 0 0 0 94 100 100 100 100 100 100 100 100 100 48 100 100 82 100 100 100 29 100 100 100 100 100 100 100 100 100 100 100 100 100 100 100
23 30 24 0 0 0 0 0 0 0 0 0 0 83 100 100 100 100 100 100 100 100 94 100 100 100 48 94 100 12 88 100 100 100 100 100 100 100 100 100 100 100 100 100 100
1 3 0 0 0 0 0 0 1 0 0 0 13 90 100 50 93 100 100 100 100 100 100 100 99 100 95 60 100 100 31 44 79 100 100 100 100 93 100 100 100 100 100 100 100
11 0 0 0 0 0 0 2 0 17 53 82 18 100 100 37 0 0 0 3 6 100 100 54 100 100 98 70 82 99 36 5 18 92 100 100 59 97 100 100 100 68 49 6 88
3 0 0 0 2 1 0 0 0 0 52 95 58 95 33 0 0 0 0 0 0 0 82 26 4 99 100 36 34 92 91 4 99 100 100 100 5 99 100 100 84 80 5 5 96
11 0 2 4 100 6 0 0 0 0 0 0 17 36 18 0 0 0 0 0 0 0 0 0 0 0 5 5 5 0 0 0 99 100 100 100 19 100 100 100 31 14 4 22 80
0 0 0 50 35 46 4 0 0 0 0 0 0 4 0 0 4 1 0 0 0 0 0 0 0 0 3 5 1 85 100 91 74 100 100 100 0 12 92 34 0 0 0 4 5
0 4 28 55 22 22 64 17 0 0 0 0 0 0 0 0 0 3 5 0 0 0 0 0 0 0 0 0 1 11 5 5 91 100 100 83 8 5 5 3 0 6 5 5 62
0 0 0 0 0 0 25 0 0 4 2 0 6 3 69 0 0 0 0 14 5 0 1 0 0 0 0 0 0 0 5 20 100 98 43 100 0 5 98 89 0 49 6 62 3
0 0 1 0 0 0 0 0 0 0 0 1 88 37 9 0 0 0 0 0 14 14 4 0 0 0 0 0 0 0 0 35 44 44 18 4 0 0 1 1 1 0 0 0 3
0 0 0 0 0 0 0 0 0 0 22 81 100 100 100 86 59 2 45 2 0 1 5 3 2 0 0 0 0 0 0 0 1 9 4 8 0 0 69 15 44 45 40 5 30
0 0 0 3 1 0 0 0 0 39 100 47 100 100 100 100 100 100 73 97 0 0 0 23 34 1 0 0 0 0 0 0 0 0 0 0 0 0 1 80 100 88 0 0 0
0 0 3 7 0 0 0 0 0 4 12 45 7 100 100 100 100 98 100 82 2 0 0 0 7 56 5 1 0 0 0 0 0 0 0 0 0 0 0 2 46 1 0 0 0
0 0 27 0 0 4 0 0 1 5 0 5 4 62 99 100 100 100 100 100 95 7 4 24 1 5 9 22 3 0 0 0 0 0 0 0 0 0 0 0 0 0 0 0 0
0 0 0 1 0 5 0 0 2 5 60 5 4 2 1 28 80 92 100 100 100 100 100 93 4 2 5 69 87 42 1 0 0 0 0 0 0 0 0 0 0 0 0 0 0
0 0 0 5 1 38 0 5 5 68 58 96 100 18 2 0 5 5 93 100 100 100 87 100 28 100 9 65 69 44 2 0 0 0 0 0 0 0 0 0 0 0 0 0 0
40 2 0 5 5 5 1 4 5 88 65 90 100 90 96 33 4 89 100 100 100 100 99 59 1 88 100 66 96 93 51 28 0 0 0 0 0 0 0 0 0 0 0 0 0
9 0 0 5 6 16 5 57 12 15 69 35 42 60 92 6 49 27 100 46 100 100 100 20 28 19 85 6 1 60 91 52 5 3 0 0 0 0 0 0 0 0 0 0 0
6 0 0 5 10 62 10 5 9 5 5 5 5 5 4 5 98 94 100 100 90 100 100 82 24 5 0 0 74 100 1 7 5 0 0 0 0 0 5 0 0 0 0 0 0
84 8 0 2 10 73 5 70 95 100 54 89 5 5 55 19 5 46 91 100 59 100 88 47 13 5 1 0 36 99 45 5 5 0 0 0 4 9 0 0 3 12 0 0 0
58 27 5 5 5 5 25 62 76 80 29 52 5 5 5 6 29 56 98 68 10 44 98 96 81 5 3 0 78 55 100 38 19 6 0 0 54 4 4 3 5 5 0 0 0
15 5 5 5 9 5 85 98 93 100 75 46 55 44 70 100 83 64 5 5 64 5 38 100 95 5 5 4 24 6 100 100 81 5 1 0 65 57 5 85 12 5 0 0 0
9 17 59 19 17 5 62 34 81 100 92 32 72 90 99 100 100 100 41 5 5 5 5 99 99 43 100 91 34 56 100 100 97 5 3 0 84 100 23 5 11 5 5 2 0
5 37 100 100 90 72 33 82 80 95 27 85 92 100 98 100 96 64 48 5 7 64 100 100 100 95 100 99 97 100 100 99 5 24 0 0 84 96 37 2 1 0 98 67 0